Hourly Data Report for October 23, 2015

All times are specified in Local Standard Time (LST). Add 1 hour to adjust for Daylight Saving Time where and when it is observed.

QIKIQTARJUAQ A
NUNAVUT

67°32'48.000" N
64°01'54.000" W
5.50 m
2400577
YVM

Download Data

Hourly Data (October 2015)
Hourly Data Report for October 23, 2015
Temp Definition
°C
Dew Point Temp Definition
°C
Rel Hum Definition
%
Wind Dir Definition
10's deg

Wind Spd Definition
km/h
Visibility Definition
km
Stn Press Definition
kPa
Hmdx Definition


Wind Chill Definition


Weather Definition


TIME
00:00 Legend Double Dagger -9.3 -13.4 72 14 5 16.1 100.90   -12 LegendNANA
01:00 Legend Double Dagger -9.6 -14.0 71 11 5 16.1 100.94   -12 LegendNANA
02:00 Legend Double Dagger -9.4 -13.7 71 12 8 16.1 100.96   -14 LegendNANA
03:00 Legend Double Dagger -8.9 -13.5 70 16 5 16.1 100.98   -12 LegendNANA
04:00 Legend Double Dagger -8.7 -14.3 64 LegendMM 4 16.1 100.99   -11 LegendNANA
05:00 Legend Double Dagger -8.7 -14.7 62 LegendMM 4 16.1 101.02   -11 LegendNANA
06:00 Legend Double Dagger -8.7 -15.1 60 14 9 16.1 101.01   -13 LegendNANA
07:00 Legend Double Dagger -9.6 -13.8 72 LegendMM 4 16.1 101.03   -12 LegendNANA
08:00 Legend Double Dagger -7.6 -13.8 62 15 4 16.1 101.07   -10 LegendNANA
09:00 Legend Double Dagger -8.9 -14.0 67 14 5 16.1 101.07   -12 LegendNANA
10:00 Legend Double Dagger -8.6 -14.0 66 15 5 16.1 101.05   -11 LegendNANA
11:00 Legend Double Dagger -7.4 -13.3 63 14 4 16.1 101.04   -9 LegendNANA
12:00 Legend Double Dagger -7.6 -13.2 65 13 5 16.1 101.01   -10 LegendNANA
13:00 Legend Double Dagger -7.6 -11.7 73 20 5 16.1 101.00   -10 LegendNANA
14:00 Legend Double Dagger -8.1 -13.0 68 LegendMM 4 16.1 100.96   -10 LegendNANA
15:00 Legend Double Dagger -7.5 -12.6 67 LegendMM 4 16.1 100.94   -10 LegendNANA
16:00 Legend Double Dagger -8.8 -13.9 67 14 8 16.1 100.93   -13 LegendNANA
17:00 Legend Double Dagger -6.8 -12.6 64   0 16.1 100.89     LegendNANA
18:00 Legend Double Dagger -6.0 -11.6 65 LegendMM 4 16.1 100.83   -8 LegendNANA
19:00 Legend Double Dagger -5.5 -11.7 62   0 16.1 100.77     LegendNANA
20:00 Legend Double Dagger -5.4 -11.2 64 21 5 16.1 100.69   -8 LegendNANA
21:00 Legend Double Dagger -6.8 -11.9 67 16 5 16.1 100.63   -9 LegendNANA
22:00 Legend Double Dagger -6.5 -11.5 68 19 11 16.1 100.54   -11 LegendNANA
23:00 Legend Double Dagger -5.6 -10.2 70 19 15 16.1 100.48   -11 LegendNANA

Notes on Data Quality.

Legend

  • E = Estimated
  • M = Missing
  • NA = Not Available
  • ‡ = Partner data that is not subject to review by the National Climate Archives
Date modified: